Weather in Mukdahan

Thailand     16°32′42″N   104°43′40″E
temp.,
°C
wind,
m/s
gust,
m/s
humid.,
%
clouds,
%
prec.,
mm/h
press.,
hPa
HPBL,
m
4 july, mon
mon401:00+24ssw4994100 3.3 1004318
04:00+24s3897100 4.3 1003296
07:00+25ssw4993100 5.5 1005458
10:00+29sw687495 0.0 10051128
13:00+31sw686694 0.6 10031384
16:00+30ssw5872100 1.1 1001745
19:00+27s2281100 1.6 100224
22:00+26s4118794 0.1 1005289
5 july, tue
tue501:00+25ssw5129097 0.1 1004432
04:00+24ssw41192100 0.2 1004450
07:00+25ssw4991100 0.1 1005475
10:00+29ssw5774100 0.0 10061050
13:00+31sw5666100 1.1 10041386
16:00+31s3568100 0.3 1002952
19:00+28s3578100 0.7 100398
22:00+27ssw41077100 0.0 1006361
6 july, wed
wed601:00+26ssw51186100 0.1 1005424
04:00+25ssw41190100 0.1 1005458
07:00+25ssw4989100 0.1 1007480
10:00+28sw5874100 0.0 1007882
13:00+31sw5764100 0.1 10051348
16:00+30w3470100 0.0 1003631
19:00+27wsw0180100 0.8 100511
22:00+26s1182100 0.1 100711
7 july, thu
thu701:00+25ssw2588100 1.7 1006115
04:00+24ssw2393100 2.4 100575
07:00+26ssw3989100 3.6 1007383
10:00+26wsw4988100 5.6 1008453
13:00+27sw378499 5.9 1006648
16:00+29wsw3675100 2.5 1004828
19:00+26wsw1184100 5.8 100512
22:00+25w228898 4.8 100725
8 july, fri
fri801:00+24wsw1194100 6.0 100620
04:00+24w1696100 1.7 1005307
07:00+24ssw2894100 1.8 1007422
10:00+28sw577770 0.0 1007975
13:00+29ssw567573 1.6 1005984
16:00+28ssw4779100 3.5 1004672
19:00+25sw3686100 5.4 1005135
22:00+25ssw3790100 0.7 1007205